Date String (YYYY-MM-DD hh:mm:ss) UTC,Instrument flags,Ambient pressure (hPa),Sample flow (lpm),Bypass flow (lpm),Sample temperature (°C),Ambient temperature (°C),ASC tube jacket temperature (°C),LED temperature (°C),Box temperature (°C),Sample RH (%),Span deviation,Mass concentration (μg/m³),Mass concentration (μg/m³),Mass concentration (μg/m³)
DateTimeUTC,F1_M11,P_M11,Q1_M11,Q2_M11,T1_M11,T2_M11,T3_M11,T4_M11,T5_M11,U1_M11,ZSPAN_M11,X0_M11,X2_M11,X1_M11
2022-12-26 08:00:00,,0829.0,5.03,0.00,21.7,20.3,00.0,30.5,23.5,19.4,0000.0,0004.04,0001.82,0001.51
2022-12-26 08:01:00,,0829.2,5.00,0.00,21.7,20.3,00.0,30.5,23.5,19.4,0000.0,0004.10,0001.87,0001.53
2022-12-26 08:02:00,,0829.0,4.99,0.00,21.7,20.4,00.0,30.5,23.5,19.4,0000.0,0004.17,0001.90,0001.55
2022-12-26 08:03:00,,0829.2,4.98,0.00,21.7,20.4,00.0,30.5,23.5,19.4,0000.0,0004.00,0001.91,0001.58
2022-12-26 08:04:00,,0828.8,5.02,0.00,21.7,20.4,00.0,30.5,23.5,19.4,0000.0,0003.47,0001.92,0001.62
2022-12-26 08:05:00,,0828.8,5.03,0.00,21.7,20.4,00.0,30.5,23.5,19.4,0000.0,0002.58,0001.90,0001.65
2022-12-26 08:06:00,,0828.7,5.00,0.00,21.7,20.4,00.0,30.5,23.5,19.4,0000.0,0002.41,0001.85,0001.67
2022-12-26 08:07:00,,0828.9,4.97,0.00,21.7,20.4,00.0,30.5,23.5,19.4,0000.0,0002.41,0001.87,0001.70
2022-12-26 08:08:00,,0829.2,4.96,0.00,21.7,20.4,00.0,30.5,23.5,19.5,0000.0,0002.74,0001.89,0001.72
2022-12-26 08:09:00,,0829.4,4.96,0.00,21.7,20.5,00.0,30.5,23.5,19.5,0000.0,0003.17,0001.94,0001.75
2022-12-26 08:10:00,,0829.3,5.00,0.00,21.7,20.5,00.0,30.5,23.5,19.5,0000.0,0003.90,0001.94,0001.76
2022-12-26 08:11:00,,0829.4,5.01,0.00,21.7,20.5,00.0,30.5,23.5,19.5,0000.0,0004.62,0001.95,0001.76
2022-12-26 08:12:00,,0829.3,5.02,0.00,21.7,20.6,00.0,30.6,23.5,19.5,0000.0,0004.59,0001.93,0001.75
2022-12-26 08:13:00,,0828.9,4.98,0.00,21.7,20.6,00.0,30.6,23.5,19.5,0000.0,0004.58,0001.94,0001.76
2022-12-26 08:14:00,,0828.9,4.97,0.00,21.7,20.6,00.0,30.6,23.5,19.5,0000.0,0004.57,0001.93,0001.77
2022-12-26 08:15:00,,0828.9,5.00,0.00,21.7,20.6,00.0,30.6,23.5,19.5,0000.0,0004.59,0001.93,0001.75
2022-12-26 08:16:00,,0828.9,5.02,0.00,21.7,20.5,00.0,30.6,23.6,19.5,0000.0,0004.62,0001.93,0001.74
2022-12-26 08:17:00,,0828.9,5.02,0.00,21.7,20.5,00.0,30.6,23.6,19.6,0000.0,0004.59,0001.92,0001.73
2022-12-26 08:18:00,,0829.0,4.97,0.00,21.7,20.5,00.0,30.6,23.6,19.6,0000.0,0004.58,0001.91,0001.72
2022-12-26 08:19:00,,0828.9,4.97,0.00,21.7,20.6,00.0,30.6,23.6,19.6,0000.0,0004.28,0001.91,0001.73
2022-12-26 08:20:00,,0829.0,5.02,0.00,21.7,20.5,00.0,30.6,23.6,19.6,0000.0,0003.99,0001.92,0001.75
2022-12-26 08:21:00,,0829.1,5.02,0.00,21.7,20.6,00.0,30.6,23.6,19.6,0000.0,0003.42,0001.92,0001.75
2022-12-26 08:22:00,,0829.1,5.00,0.00,21.7,20.6,00.0,30.6,23.6,19.6,0000.0,0002.52,0001.93,0001.76
2022-12-26 08:23:00,,0829.1,4.98,0.00,21.7,20.5,00.0,30.6,23.5,19.6,0000.0,0002.54,0001.95,0001.79
2022-12-26 08:24:00,,0829.1,4.98,0.00,21.7,20.4,00.0,30.6,23.5,19.6,0000.0,0002.54,0001.94,0001.79
2022-12-26 08:25:00,,0829.1,5.02,0.00,21.7,20.3,00.0,30.6,23.5,19.6,0000.0,0002.55,0001.95,0001.79
2022-12-26 08:26:00,,0829.0,5.02,0.00,21.7,20.2,00.0,30.6,23.4,19.6,0000.0,0002.56,0001.93,0001.79
2022-12-26 08:27:00,,0829.1,5.01,0.00,21.6,20.1,00.0,30.6,23.4,19.7,0000.0,0003.06,0001.95,0001.81
2022-12-26 08:28:00,,0829.1,4.98,0.00,21.6,20.0,00.0,30.6,23.3,19.7,0000.0,0003.87,0001.95,0001.82
2022-12-26 08:29:00,,0829.1,4.99,0.00,21.6,19.9,00.0,30.6,23.2,19.8,0000.0,0003.92,0001.96,0001.83
2022-12-26 08:30:00,,0829.3,4.99,0.00,21.6,19.9,00.0,30.6,23.2,19.8,0000.0,0003.93,0001.97,0001.84
2022-12-26 08:31:00,,0829.2,5.02,0.00,21.6,19.9,00.0,30.5,23.3,19.8,0000.0,0003.92,0001.96,0001.83
2022-12-26 08:32:00,,0829.4,5.02,0.00,21.6,20.1,00.0,30.5,23.3,19.8,0000.0,0003.91,0001.95,0001.82
2022-12-26 08:33:00,,0829.5,5.01,0.00,21.6,20.2,00.0,30.5,23.4,19.7,0000.0,0003.96,0001.97,0001.82
2022-12-26 08:34:00,,0829.5,4.95,0.00,21.6,20.3,00.0,30.5,23.4,19.7,0000.0,0003.98,0001.97,0001.81
2022-12-26 08:35:00,,0829.5,4.98,0.00,21.6,20.4,00.0,30.5,23.4,19.7,0000.0,0004.00,0001.97,0001.81
2022-12-26 08:36:00,,0829.5,5.03,0.00,21.6,20.4,00.0,30.5,23.4,19.7,0000.0,0003.95,0001.95,0001.80
2022-12-26 08:37:00,,0829.5,5.02,0.00,21.6,20.5,00.0,30.5,23.5,19.7,0000.0,0003.97,0001.96,0001.80
2022-12-26 08:38:00,,0829.5,4.99,0.00,21.6,20.5,00.0,30.5,23.5,19.7,0000.0,0003.64,0001.96,0001.80
2022-12-26 08:39:00,,0829.5,4.97,0.00,21.7,20.6,00.0,30.5,23.5,19.7,0000.0,0002.88,0001.98,0001.79
2022-12-26 08:40:00,,0829.4,4.99,0.00,21.7,20.6,00.0,30.5,23.5,19.6,0000.0,0002.87,0002.01,0001.80
2022-12-26 08:41:00,,0829.5,5.01,0.00,21.7,20.6,00.0,30.5,23.5,19.6,0000.0,0002.83,0001.99,0001.80
2022-12-26 08:42:00,,0829.5,5.02,0.00,21.7,20.6,00.0,30.5,23.5,19.6,0000.0,0002.80,0001.99,0001.81
2022-12-26 08:43:00,,0829.5,4.97,0.00,21.7,20.6,00.0,30.6,23.5,19.6,0000.0,0002.85,0002.02,0001.82
2022-12-26 08:44:00,,0829.6,4.99,0.00,21.7,20.6,00.0,30.6,23.6,19.5,0000.0,0002.84,0002.03,0001.83
2022-12-26 08:45:00,,0829.5,5.01,0.00,21.7,20.6,00.0,30.6,23.6,19.5,0000.0,0002.82,0002.03,0001.84
2022-12-26 08:46:00,,0829.5,5.01,0.00,21.7,20.6,00.0,30.6,23.6,19.5,0000.0,0002.83,0002.05,0001.85
2022-12-26 08:47:00,,0829.5,5.00,0.00,21.7,20.7,00.0,30.6,23.6,19.5,0000.0,0002.92,0002.06,0001.87
2022-12-26 08:48:00,,0829.6,4.97,0.00,21.7,20.7,00.0,30.6,23.6,19.5,0000.0,0002.89,0002.07,0001.88
2022-12-26 08:49:00,,0829.6,4.99,0.00,21.8,20.7,00.0,30.6,23.6,19.5,0000.0,0002.69,0002.06,0001.89
2022-12-26 08:50:00,,0829.5,5.02,0.00,21.8,20.6,00.0,30.6,23.6,19.5,0000.0,0002.59,0002.02,0001.87
2022-12-26 08:51:00,,0829.6,5.03,0.00,21.7,20.5,00.0,30.6,23.5,19.5,0000.0,0003.24,0002.00,0001.85
2022-12-26 08:52:00,,0829.6,4.98,0.00,21.7,20.4,00.0,30.6,23.5,19.5,0000.0,0004.49,0002.00,0001.84
2022-12-26 08:53:00,,0829.6,4.97,0.00,21.7,20.4,00.0,30.6,23.5,19.6,0000.0,0004.50,0002.00,0001.84
2022-12-26 08:54:00,,0829.9,5.00,0.00,21.7,20.5,00.0,30.6,23.5,19.6,0000.0,0004.45,0001.98,0001.83
2022-12-26 08:55:00,,0829.6,5.02,0.00,21.7,20.5,00.0,30.6,23.5,19.6,0000.0,0004.45,0001.97,0001.82
2022-12-26 08:56:00,,0829.6,5.02,0.00,21.7,20.5,00.0,30.6,23.5,19.6,0000.0,0004.49,0001.96,0001.80
2022-12-26 08:57:00,,0829.6,5.00,0.00,21.7,20.5,00.0,30.6,23.5,19.5,0000.0,0004.48,0001.95,0001.79
2022-12-26 08:58:00,,0829.7,4.97,0.00,21.7,20.3,00.0,30.6,23.5,19.6,0000.0,0004.43,0001.94,0001.77
2022-12-26 08:59:00,,0829.7,4.98,0.00,21.7,20.2,00.0,30.6,23.4,19.6,0000.0,0004.46,0001.95,0001.75
